Volver al catálogo

STARLINK-32887

ActivoComunicacionesVLEO
NORAD 62964·PAYLOAD·🇺🇸 United States

Lanzado Feb 11, 2025 desde Vandenberg Space Force Base

Loading…

Próximos Pases (próximas 24 horas)

TLE

ActualizadoSource: CelesTrak SupGP

Época: Sep 14, 2026, 22:18 UTC

1 62964C 25029S   26257.92965278  .00042079  00000+0  12434-2 0  2579
2 62964  53.1581  67.8729 0001109  80.2637 141.6404 15.34364537    10

Sigue STARLINK-32887 en tiempo real con AllMySat

Download on the App Store